Liberia, Costa Rica

4:48 AM CST on February 23, 2017 (GMT -0600)
Daniel Oduber Quiros International

Weather History for MRLB - May, 2013

Change the Weather History Date:

Monday, May 27, 2013

  Actual Average Record
Temperature  
Mean Temperature 82 °F -  
Max Temperature 91 °F 86 °F 96 °F (2015)
Min Temperature 73 °F 75 °F 58 °F (2015)
Cooling Degree Days 17    
Growing Degree Days 32 (Base 50)    
Moisture  
Dew Point 72 °F    
Average Humidity 71    
Maximum Humidity 94    
Minimum Humidity 45    
Precipitation  
Precipitation 0.01 in - - ()
Sea Level Pressure  
Sea Level Pressure 29.85 in    
Wind  
Wind Speed 4 mph ()    
Max Wind Speed 12 mph    
Max Gust Speed -    
Visibility 8.0 miles    
Events Rain , Thunderstorm    
Averages and records for this station are not official NWS values.
T = Trace of Precipitation, MM = Missing Value Source: Averaged Metar Reports

Daily Weather History Graph

Daily Weather History Graph

Search for Another Location

Airport or City:

Trip Planner

Search our weather history database for the weather conditions in past years. The results will help you decide how hot, cold, wet, or windy it might be!

Date:

Astronomy

May. 27, 2013 Rise Set
Actual Time 5:18 AM CST 5:59 PM CST
Civil Twilight 4:56 AM CST 6:22 PM CST
Nautical Twilight 4:29 AM CST 6:49 PM CST
Astronomical Twilight 4:02 AM CST 7:16 PM CST
Moon 8:50 PM CST (5/27) 7:48 AM CST (5/27)
Length of Visible Light 13h 26m
Length of Day
12h 41m
Waning Gibbous, 90% of the Moon is Illuminated
May 27
Waning Gibbous
May 31
Last Quarter
Jun 8
New
Jun 16
First Quarter
Jun 23
Full

Hourly Weather History & Observations

Time (CST) Temp. Heat Index Dew Point Humidity Pressure Visibility Wind Dir Wind Speed Gust Speed Precip Events Conditions
6:00 AM 74 °F - 72 °F 91% 29.87 in 12 mi NNE 3.5 mph - -   Overcast
6:00 AM 73.4 °F - 71.6 °F 94% 29.85 in - NNE 3.5 mph - N/A   Clear
7:00 AM 77.0 °F - 71.6 °F 83% 29.87 in - ENE 3.5 mph - N/A   Clear
8:00 AM 80.6 °F 85.4 °F 73.4 °F 79% 29.88 in - SSW 3.5 mph - N/A   Clear
9:00 AM 84 °F - 72 °F 60% 29.91 in 12 mi West 4.6 mph - -   Overcast
9:00 AM 84.2 °F 89.6 °F 71.6 °F 66% 29.89 in 6.2 mi West 4.6 mph - N/A   Overcast
10:00 AM 86.0 °F 91.8 °F 71.6 °F 62% 29.91 in 6.2 mi WNW 4.6 mph - N/A   Mostly Cloudy
11:00 AM 89.6 °F 96.2 °F 71.6 °F 55% 29.88 in - SSW 3.5 mph - N/A   Scattered Clouds
12:00 PM 90 °F - 71 °F 45% 29.88 in 12 mi West 3.5 mph - -   Overcast
12:00 PM 89.6 °F 96.2 °F 71.6 °F 55% 29.87 in 6.2 mi West 3.5 mph - N/A   Mostly Cloudy
1:00 PM 91.4 °F 98.4 °F 71.6 °F 52% 29.83 in 6.2 mi SW 3.5 mph - N/A   Scattered Clouds
2:00 PM 84.2 °F 92.3 °F 75.2 °F 74% 29.81 in 6.2 mi SW 8.1 mph - N/A Rain Rain
3:00 PM 83 °F - 75 °F 72% 29.80 in 12 mi West 6.9 mph - -   Overcast
3:00 PM 84.2 °F 92.3 °F 75.2 °F 74% 29.78 in 6.2 mi West 6.9 mph - N/A   Scattered Clouds
4:00 PM 86.0 °F 93.4 °F 73.4 °F 66% 29.77 in 6.2 mi WSW 8.1 mph - N/A Thunderstorm Thunderstorm
5:00 PM 80.6 °F 83.9 °F 69.8 °F 70% 29.80 in 6.2 mi SW 11.5 mph - N/A   Scattered Clouds
6:00 PM 77 °F - 69 °F 70% 29.83 in 12 mi SSW 4.6 mph - -   Partly Cloudy
6:00 PM 77.0 °F - 69.8 °F 78% 29.81 in 6.2 mi SSW 4.6 mph - N/A   Mostly Cloudy
7:00 PM 77.0 °F - 71.6 °F 83% 29.83 in 6.2 mi ESE 4.6 mph - N/A   Mostly Cloudy
8:00 PM 75.2 °F - 71.6 °F 89% 29.88 in 6.2 mi WSW 3.5 mph - N/A   Scattered Clouds